Regional Weather Roundup
Issued by NWS

Home | Current Version | Previous Version | Text Only | Print | Product List | Glossary On
Versions: 1 2 3 4 5 6 7 8 9 10 11 12 13 14 15 16 17 18 19 20 21 22 23 24 25 26 27 28 29 30 31 32 33 34 35 36 37 38 39 40 41 42 43 44 45 46 47 48 49 50
000
ASUS46 KPQR 270410
RWROR

OREGON REGIONAL WEATHER ROUNDUP
NATIONAL WEATHER SERVICE PORTLAND OR
800 PM PST MON JAN 26 2015

NOTE: "FAIR" INDICATES FEW OR NO CLOUDS BELOW 12,000 FEET WITH
NO SIGNIFICANT WEATHER AND/OR OBSTRUCTIONS TO VISIBILITY.

ORZ001>013-270500-
NORTHWEST OREGON


CITY           SKY/WX    TMP DP  RH WIND       PRES   REMARKS
ASTORIA        CLOUDY    51  49  92 CALM      29.97F
NEWPORT        MOCLDY    52  50  93 SW5       30.01F
PORTLAND       PTCLDY    45  42  89 E3        29.98R
VANCOUVER WA   PTCLDY    45  40  82 CALM      29.98R
SCAPPOOSE      PTCLDY    42  41  96 CALM      29.98R FOG
HILLSBORO      FOG       42  42 100 CALM      29.99R VSB 1/4
AURORA         FOG       45  45 100 NW3       29.98S VSB 1/4
MCMINNVILLE    FOG       45  43  93 N3        29.99S VSB 1/4
SALEM          FOG       46  46 100 CALM      29.97S VSB 1/2
CORVALLIS      CLOUDY    45  41  87 W3        29.98S VSB 1/4
EUGENE         FOG       43  42  97 CALM      29.98F VSB 1/8
$$

ORZ021-028-270500-
SOUTHWEST OREGON


CITY           SKY/WX    TMP DP  RH WIND       PRES   REMARKS
NORTH BEND     CLOUDY    54  52  94 W5        30.01S
BROOKINGS      FOG       51  51 100 CALM      30.01R VSB<1/4
ROSEBURG       PTCLDY    48  46  93 CALM      29.98R
SEXTON SUMMIT  CLOUDY    55  26  32 W3        30.02F
MEDFORD        MOCLDY    42  41  96 CALM      30.01S FOG
$$

ORZ014>016-041-270500-
COLUMBIA GORGE


CITY           SKY/WX    TMP DP  RH WIND       PRES   REMARKS
TROUTDALE      PTCLDY    46  41  82 E9        29.96R
THE DALLES     CLOUDY    42  38  85 NE5       30.05R
$$

ORZ029>031-041-044-049-050-061>064-502-503-505>511-270500-
EASTERN OREGON


CITY           SKY/WX    TMP DP  RH WIND       PRES   REMARKS
REDMOND        PTCLDY    43  35  73 SE5       30.00S
BEND           PTCLDY    41  36  81 S5        30.02F
PRINEVILLE     PTCLDY    52  37  58 CALM      30.02S
KLAMATH FALLS  PTCLDY    38  32  79 CALM      30.03F
LAKEVIEW       PTCLDY    37  30  75 NE3       30.05S
HERMISTON      FOG       38  36  92 CALM      30.03F VSB 1/4
PENDLETON      FOG       34  34 100 NW3       30.00R VSB<1/4
JOHN DAY       MOCLDY    46  34  64 E8        30.06R
MEACHAM        CLEAR     44  33  65 VRB3      30.04S
LA GRANDE      PTCLDY    48  32  53 S16G24    30.06F
BAKER CITY     MOCLDY    31  29  92 E3        30.13F
BURNS          MOCLDY    29  27  92 S5        30.11S WCI  24
ROME             N/A     31  30  96 CALM      30.11F
ONTARIO        CLEAR     34  31  88 CALM      30.19F
$$



USA.gov is the U.S. government's official web portal to all federal, state and local government web resources and services.